Back to catalog

SL-12 DEB

AliveHEO
NORAD 23297·DEBRIS·🇷🇺 Russia

Launched Dec 24, 1985 from Baikonur Cosmodrome

Loading…

Next Passes (next 24 hours)

TLE

FreshSource: Space-Track

Epoch: Sep 14, 2026, 05:24 UTC

1 23297U 85118U   26257.22509796 -.00000052  00000-0  00000-0 0  9996
2 23297  67.4598 326.5121 4953448 142.6148 265.2174  4.68572833564252

Track SL-12 DEB in real time with AllMySat

Download on the App Store